Tracking 27111 objects as of 28-Mar-2023
HD Live streaming from Space Station
objects crossing your sky now

DELTA 1 R/B

Track DELTA 1 R/B now!
10-day predictions


NORAD ID: 3670
Int'l Code: 1969-009B
Perigee: 582.0 km
Apogee: 3,309.9 km
Inclination: 88.4 °
Period: 125.8 minutes
Semi major axis: 8316 km
RCS: 0.5955 m2 (medium)
Launch date: January 30, 1969
Source: United States (US)
Launch site: AIR FORCE WESTERN TEST RANGE (AFWTR)

Note: This is a ROCKET BODY
Your satellite tracking list
Your tracking list is empty




NASA's NSSDC Master Catalog

Two Line Element Set (TLE):
1 03670U 69009B   23086.84740336  .00002066  00000-0  14185-2 0  9999
2 03670  88.4257 238.4950 1639967 206.3938 144.3677 11.44600510244379
Source of the keplerian elements: AFSPC